#timestamp,LO_Frequency,Hit,StdDev 
1663516815.6,286047002.3,N
1663516835.4,286047002.4,N
1663516855.3,286047000.1,N
1663516875.1,286047000.0,N
1663516895.8,286046998.1,N
1663516915.7,286046998.2,N
1663516935.5,286046998.3,N
1663516955.4,286046996.9,N
1663516975.2,286046997.7,N
1663516995.0,286046996.7,N
1663516995.9,286046996.7,N
1663517015.8,286046997.5,N
1663517035.6,286046997.7,N
1663517055.4,286046996.6,N
1663517075.3,286046999.5,N
1663517095.1,286046999.1,N
1663517115.9,286046997.2,N
1663517135.7,286046995.3,N
1663517155.5,286046997.6,N
1663517175.4,286046995.7,N
1663517195.2,286046995.4,N
1663517215.1,286046997.1,N
1663517216.0,286046997.1,N
1663517235.8,286046996.8,N
1663517255.6,286046997.9,N
1663517275.5,286046997.2,N
1663517295.3,286046997.5,N
1663517315.2,286046994.9,N
1663517335.9,286046995.1,N
1663517355.7,286046995.7,N
1663517375.6,286046996.1,N
1663517395.4,286046995.7,N
1663517415.2,286046993.4,Y
1663517435.1,286046999.4,P
1663517436.0,286046999.4,N
1663517455.8,286046999.4,N
1663517475.7,286046996.5,Y
1663517495.5,286047001.2,P
1663517515.4,286046998.3,N
1663517535.2,286047001.1,N
1663517555.0,286046998.2,N
1663517555.9,286046998.2,N
1663517575.8,286046998.2,N
1663517595.6,286046998.3,N
1663517615.5,286047000.9,N
1663517635.3,286047000.7,N
1663517655.1,286047000.5,N
1663517675.9,286046998.1,N
1663517695.7,286047001.1,N
1663517715.5,286046998.2,N
1663517735.4,286046998.3,N
1663517755.2,286047001.2,N
1663517775.1,286047001.2,N
1663517776.0,286047001.2,N
1663517795.8,286046998.8,N
1663517815.6,286046998.9,N
1663517835.5,286047000.3,N
1663517855.3,286047001.0,N
1663517875.2,286047002.3,N
1663517895.9,286047001.4,N
1663517915.7,286047001.7,N
1663517935.6,286047003.2,N
1663517955.4,286047004.3,N
1663517975.2,286047001.9,N
1663517995.1,286047000.0,N
1663517996.0,286047000.0,N
1663518015.8,286047000.7,N
1663518035.7,286046998.2,N
1663518055.5,286046998.3,N
1663518075.3,286046998.3,N
1663518095.2,286046999.1,N
1663518115.0,286046999.6,N
1663518115.9,286046999.6,N
1663518135.7,286046998.4,N
1663518155.6,286046998.2,N
1663518175.4,286047000.4,N
1663518195.3,286047000.4,N
1663518215.1,286047002.2,N
1663518235.8,286047002.8,N
1663518255.7,286047002.6,N
1663518275.5,286046999.7,N
1663518295.4,286047000.7,N
1663518315.2,286047000.3,N
1663518335.0,286047000.5,N
1663518335.9,286047000.5,N
1663518355.8,286047002.8,N
1663518375.6,286047002.4,N
1663518395.4,286047002.4,N
1663518415.3,286047002.2,N
1663518435.1,286047002.2,N
1663518455.9,286047000.2,N
1663518475.7,286047001.0,N
1663518495.5,286047000.2,N
1663518515.4,286047000.5,N
1663518535.2,286046999.8,N
1663518555.0,286047002.3,N
1663518555.9,286047002.3,N
1663518575.8,286047002.3,N
1663518595.6,286047002.7,N
1663518615.5,286047002.7,N
1663518635.3,286046999.8,N
1663518655.1,286047000.8,N
1663518675.9,286047001.2,N
1663518695.7,286047000.9,N
1663518715.5,286047002.8,N
1663518735.4,286047001.6,N
1663518755.2,286047001.4,N
1663518775.1,286047001.4,N
1663518776.0,286047001.4,N
1663518795.8,286047004.4,Y
1663518815.6,286047002.6,P
1663518835.5,286047000.0,N
1663518855.3,286047002.7,N
1663518875.2,286047000.1,N
1663518895.9,286047002.7,N
1663518915.7,286046999.9,N
1663518935.6,286047000.8,N
1663518955.4,286046999.9,N
1663518975.2,286046999.7,N
1663518995.1,286047000.3,N
1663518996.0,286047000.3,N
1663519015.8,286047000.0,N
1663519035.7,286047000.0,N
1663519055.5,286047000.9,N
1663519075.3,286047000.0,N
1663519095.2,286047000.4,N
1663519115.9,286047001.1,N
1663519135.7,286047000.5,N
1663519155.6,286047000.7,N
1663519175.4,286047002.4,N
1663519195.2,286047000.8,N
1663519215.1,286047000.1,N
1663519216.0,286047000.1,N
1663519235.8,286047002.1,N
1663519255.7,286047002.2,N
1663519275.5,286047002.2,N
1663519295.3,286047001.5,N
1663519315.2,286047002.0,N
1663519335.0,286047001.5,N
1663519335.9,286047001.5,N
1663519355.8,286047001.7,N
1663519375.6,286046999.7,N
1663519395.4,286047000.2,N
1663519415.3,286047002.3,N
1663519435.1,286046999.7,N
1663519455.9,286047002.5,N
1663519475.7,286047001.5,N
1663519495.5,286047001.8,N
1663519515.4,286047001.7,N
1663519535.2,286047004.0,Y
1663519555.1,286047002.5,P
1663519556.0,286047002.5,P
1663519575.8,286047001.3,N
1663519595.6,286047004.3,Y
1663519615.5,286047002.6,P
1663519635.3,286047002.2,P
1663519655.2,286047002.7,P
1663519675.9,286047001.6,Y
1663519695.7,286047000.6,P
1663519715.6,286047001.2,N
1663519735.4,286046998.1,N
1663519755.2,286046998.7,N
1663519775.1,286047001.0,N
1663519776.0,286047001.0,N
1663519795.8,286047001.2,N
1663519815.7,286046998.1,N
1663519835.5,286047001.1,N
1663519855.3,286047000.5,N
1663519875.2,286047000.7,N
1663519895.0,286047000.8,N
1663519895.9,286047000.8,N
1663519915.8,286047000.5,N
1663519935.6,286046999.9,N
1663519955.4,286047001.1,N
1663519975.3,286047000.7,N
1663519995.1,286047000.8,N
1663520015.8,286046999.6,N
1663520035.7,286046998.8,N
1663520055.5,286046998.2,N
1663520075.4,286046998.2,N
1663520095.2,286046998.8,N
1663520115.0,286047001.2,N
1663520115.9,286047001.2,N
1663520135.8,286047000.0,N
1663520155.6,286047000.2,N
1663520175.5,286047001.9,N
1663520195.3,286047001.1,N
1663520215.1,286047000.0,N
1663520235.9,286047000.0,N
1663520255.7,286047001.0,N
1663520275.6,286047000.2,N
1663520295.4,286047002.2,N
1663520315.2,286047002.0,N
1663520335.1,286047002.4,N
1663520336.0,286047002.4,N
1663520355.8,286047001.5,N
1663520375.6,286047001.7,N
1663520395.5,286047004.0,Y
